User: anonymous   Login
Location: Quebec
(46.8000°N, 71.2500°W)
Time: 02:10:41
(UTC-05:00)
Language:

CZ-4B R/B - Orbit

View from above orbital plane
View from above orbital plane
View from above satellite
View from above satellite

Ground track
Ground track

The orbit data is extracted from the following two-line orbital elements,

1 29093U 06015B   18018.58911134 +.00002371 +00000-0 +55536-4 0  9996
2 29093 097.5117 140.1602 0059761 262.3165 097.1293 15.41385522650594
Epoch (UTC): 18 January 2018 14:08:19
Eccentricity: 0.0059761
inclination: 97.5117°
perigee height: 401 km
apogee height: 483 km
right ascension of ascending node: 140.1602°
argument of perigee: 262.3165°
revolutions per day: 15.41385522
mean anomaly at epoch: 97.1293°
orbit number at epoch: 65059

The dashed part of the orbit path shows where the satellite is in the earth's shadow,  

DLR